| time (UTC) | temp F | wind direction | speed knots | gust knots | rain 1hr in | rain 24hr in | rain mn in | humidity % | barometer mb |
| 20260906083020 | 69 | 0.0 | 0.0 | 0.00 | 0.00 | 0.00 | 1 | 1011.4 | |
| 20260906082020 | 69 | 0.0 | 0.9 | 0.00 | 0.00 | 0.00 | 1 | 1011.4 | |
| 20260906081020 | 69 | 68 | 1.7 | 2.6 | 0.00 | 0.00 | 0.00 | 1 | 1011.4 |
| 20260906080019 | 70 | 0.0 | 0.0 | 0.00 | 0.00 | 0.00 | 1 | 1011.3 | |
| 20260906075019 | 70 | 0.0 | 0.0 | 0.00 | 0.00 | 0.00 | 1 | 1011.2 | |
| 20260906074040 | 70 | 68 | 1.7 | 2.6 | 0.00 | 0.00 | 0.00 | 1 | 1011.0 |
| 20260906073020 | 69 | 68 | 0.9 | 0.9 | 0.00 | 0.00 | 0.00 | 1 | 1010.9 |
| 20260906072019 | 69 | 0.0 | 0.0 | 0.00 | 0.00 | 0.00 | 1 | 1011.0 | |
| 20260906071020 | 69 | 68 | 0.9 | 1.7 | 0.00 | 0.00 | 0.00 | 1 | 1011.1 |
| 20260906070020 | 69 | 0.0 | 0.0 | 0.00 | 0.00 | 0.00 | 1 | 1011.3 | |
| 20260906065020 | 69 | 0.0 | 0.9 | 0.00 | 0.00 | 0.00 | 1 | 1011.5 | |
| 20260906064020 | 70 | 0.0 | 0.9 | 0.00 | 0.00 | 0.00 | 1 | 1011.7 | |
| 20260906063019 | 70 | 0.0 | 0.0 | 0.00 | 0.00 | 0.00 | 1 | 1011.9 | |
| 20260906062020 | 70 | 0.0 | 0.0 | 0.00 | 0.00 | 0.00 | 1 | 1011.9 | |
| 20260906061019 | 70 | 0.0 | 0.0 | 0.00 | 0.00 | 0.00 | 1 | 1011.9 | |
| 20260906060019 | 70 | 68 | 0.9 | 0.9 | 0.00 | 0.00 | 0.00 | 1 | 1012.0 |
| 20260906055019 | 71 | 68 | 0.9 | 1.7 | 0.00 | 0.00 | 0.00 | 1 | 1011.9 |
| 20260906054019 | 70 | 0.0 | 0.0 | 0.00 | 0.00 | 0.00 | 1 | 1012.0 | |
| 20260906053039 | 70 | 0.0 | 0.0 | 0.00 | 0.00 | 0.00 | 1 | 1012.0 | |
| 20260906052020 | 70 | 68 | 0.9 | 1.7 | 0.00 | 0.00 | 0.00 | 1 | 1012.0 |
| 20260906051019 | 70 | 68 | 0.9 | 1.7 | 0.00 | 0.00 | 0.00 | 1 | 1012.0 |
| 20260906050019 | 71 | 0.0 | 0.0 | 0.00 | 0.00 | 0.00 | 1 | 1011.9 | |
| 20260906045019 | 71 | 0.0 | 0.0 | 0.00 | 0.00 | 0.00 | 1 | 1012.2 | |
| 20260906044019 | 71 | 0.0 | 0.0 | 0.00 | 0.00 | 0.00 | 1 | 1011.8 | |
| 20260906043019 | 71 | 68 | 0.9 | 1.7 | 0.00 | 0.00 | 0.00 | 1 | 1011.9 |
| 20260906042039 | 71 | 68 | 0.9 | 1.7 | 0.00 | 0.00 | 0.00 | 1 | 1011.9 |
| 20260906041019 | 71 | 68 | 0.9 | 1.7 | 0.00 | 0.00 | 0.00 | 1 | 1011.9 |
| 20260906040019 | 72 | 0.0 | 1.7 | 0.00 | 0.00 | 0.00 | 1 | 1012.2 | |
| 20260906035021 | 71 | 0.0 | 0.9 | 0.00 | 0.00 | 0.00 | 1 | 1012.4 | |
| 20260906034021 | 71 | 68 | 0.9 | 1.7 | 0.00 | 0.00 | 0.00 | 1 | 1012.5 |
| 20260906033020 | 72 | 68 | 0.9 | 2.6 | 0.00 | 0.00 | 0.00 | 1 | 1012.3 |
| 20260906032021 | 72 | 0.0 | 0.9 | 0.00 | 0.00 | 0.00 | 1 | 1012.3 | |
| 20260906031020 | 72 | 68 | 0.9 | 1.7 | 0.00 | 0.00 | 0.00 | 1 | 1012.3 |
| 20260906030020 | 72 | 68 | 0.9 | 1.7 | 0.00 | 0.00 | 0.00 | 1 | 1012.2 |
| 20260906025020 | 72 | 68 | 0.9 | 0.9 | 0.00 | 0.00 | 0.00 | 1 | 1012.1 |
| 20260906024020 | 72 | 0.0 | 0.9 | 0.00 | 0.00 | 0.00 | 1 | 1012.0 | |
| 20260906023020 | 72 | 0.0 | 0.0 | 0.00 | 0.00 | 0.00 | 1 | 1012.0 | |
| 20260906022040 | 73 | 0.0 | 0.0 | 0.00 | 0.00 | 0.00 | 1 | 1012.1 | |
| 20260906021020 | 73 | 68 | 0.9 | 1.7 | 0.00 | 0.00 | 0.00 | 1 | 1012.3 |
| 20260906020020 | 73 | 68 | 0.9 | 1.7 | 0.00 | 0.00 | 0.00 | 1 | 1012.1 |
| 20260906015020 | 73 | 0.0 | 0.9 | 0.00 | 0.00 | 0.00 | 1 | 1012.0 | |
| 20260906014020 | 73 | 68 | 1.7 | 3.5 | 0.00 | 0.00 | 0.00 | 1 | 1011.8 |
| 20260906013020 | 73 | 158 | 0.9 | 2.6 | 0.00 | 0.00 | 0.00 | 1 | 1011.7 |
| 20260906012022 | 74 | 158 | 0.9 | 2.6 | 0.00 | 0.00 | 0.00 | 1 | 1011.2 |
| 20260906011020 | 74 | 0.0 | 0.9 | 0.00 | 0.00 | 0.00 | 1 | 1011.0 | |
| 20260906010020 | 74 | 0.0 | 0.9 | 0.00 | 0.00 | 0.00 | 1 | 1011.0 | |
| 20260906005020 | 75 | 158 | 0.9 | 2.6 | 0.00 | 0.00 | 0.00 | 1 | 1010.9 |
| 20260906004020 | 75 | 158 | 0.9 | 2.6 | 0.00 | 0.00 | 0.00 | 1 | 1010.9 |
| 20260906003020 | 76 | 0.0 | 0.9 | 0.00 | 0.00 | 0.00 | 1 | 1010.9 | |
| 20260906002020 | 77 | 0.0 | 0.9 | 0.00 | 0.00 | 0.00 | 1 | 1010.7 | |
| 20260906001040 | 78 | 0.0 | 2.6 | 0.00 | 0.00 | 0.00 | 1 | 1010.7 | |
| 20260906000020 | 79 | 158 | 2.6 | 3.5 | 0.00 | 0.00 | 0.00 | 1 | 1010.6 |
| 20260905235040 | 80 | 158 | 0.9 | 2.6 | 0.00 | 0.00 | 0.00 | 1 | 1010.5 |
| 20260905234100 | 81 | 158 | 0.9 | 0.9 | 0.00 | 0.00 | 0.00 | 5 | 1010.6 |
| 20260905233020 | 82 | 158 | 0.9 | 2.6 | 0.00 | 0.00 | 0.00 | 16 | 1010.7 |
| 20260905232020 | 83 | 158 | 0.9 | 0.9 | 0.00 | 0.00 | 0.00 | 15 | 1010.7 |
| 20260905231040 | 84 | 0.0 | 0.9 | 0.00 | 0.00 | 0.00 | 28 | 1010.5 | |
| 20260905230020 | 85 | 158 | 1.7 | 2.6 | 0.00 | 0.00 | 0.00 | 43 | 1010.7 |
| 20260905225120 | 87 | 158 | 1.7 | 2.6 | 0.00 | 0.00 | 0.00 | 49 | 1010.9 |
| 20260905224020 | 88 | 158 | 0.9 | 3.5 | 0.00 | 0.00 | 0.00 | 55 | 1011.0 |
| 20260905223039 | 88 | 158 | 0.9 | 3.5 | 0.00 | 0.00 | 0.00 | 55 | 1011.1 |
| 20260905222020 | 88 | 180 | 1.7 | 4.3 | 0.00 | 0.00 | 0.00 | 55 | 1011.0 |
| 20260905221020 | 88 | 180 | 3.5 | 7.0 | 0.00 | 0.00 | 0.00 | 55 | 1011.0 |
| 20260905220213 | 88 | 158 | 2.6 | 4.3 | 0.00 | 0.00 | 0.00 | 55 | 1011.2 |
| 20260905215040 | 88 | 180 | 1.7 | 4.3 | 0.00 | 0.00 | 0.00 | 55 | 1011.3 |
| 20260905214020 | 88 | 180 | 2.6 | 4.3 | 0.00 | 0.00 | 0.00 | 55 | 1011.3 |
| 20260905213040 | 89 | 158 | 3.5 | 8.7 | 0.00 | 0.00 | 0.00 | 54 | 1011.4 |
| 20260905212020 | 89 | 270 | 1.7 | 4.3 | 0.00 | 0.00 | 0.00 | 55 | 1011.6 |
| 20260905211020 | 89 | 225 | 2.6 | 6.1 | 0.00 | 0.00 | 0.00 | 54 | 1011.5 |
| 20260905210020 | 88 | 180 | 2.6 | 5.2 | 0.00 | 0.00 | 0.00 | 55 | 1011.5 |
| 20260905205020 | 89 | 225 | 1.7 | 4.3 | 0.00 | 0.00 | 0.00 | 54 | 1011.6 |
| 20260905204020 | 89 | 158 | 0.9 | 3.5 | 0.00 | 0.00 | 0.00 | 54 | 1011.5 |
| 20260905203019 | 88 | 135 | 1.7 | 3.5 | 0.00 | 0.00 | 0.00 | 54 | 1011.6 |
| 20260905202019 | 87 | 158 | 1.7 | 4.3 | 0.00 | 0.00 | 0.00 | 55 | 1011.7 |
| 20260905201019 | 87 | 180 | 3.5 | 6.1 | 0.00 | 0.00 | 0.00 | 54 | 1011.9 |
| 20260905200019 | 87 | 180 | 2.6 | 5.2 | 0.00 | 0.00 | 0.00 | 54 | 1012.1 |
| 20260905195019 | 86 | 135 | 2.6 | 4.3 | 0.00 | 0.00 | 0.00 | 54 | 1012.2 |
| 20260905194019 | 86 | 113 | 2.6 | 6.1 | 0.00 | 0.00 | 0.00 | 53 | 1012.4 |
| 20260905193039 | 87 | 90 | 1.7 | 2.6 | 0.00 | 0.00 | 0.00 | 53 | 1012.5 |
| 20260905192019 | 86 | 135 | 1.7 | 3.5 | 0.00 | 0.00 | 0.00 | 54 | 1012.7 |
| 20260905191100 | 87 | 68 | 2.6 | 4.3 | 0.00 | 0.00 | 0.00 | 53 | 1012.8 |
| 20260905190039 | 86 | 68 | 4.3 | 8.7 | 0.00 | 0.00 | 0.00 | 50 | 1012.9 |
| 20260905185040 | 85 | 68 | 3.5 | 7.8 | 0.00 | 0.00 | 0.00 | 46 | 1012.9 |
| 20260905184019 | 84 | 113 | 4.3 | 9.6 | 0.00 | 0.00 | 0.00 | 50 | 1013.2 |
| 20260905183019 | 84 | 135 | 6.1 | 8.7 | 0.00 | 0.00 | 0.00 | 52 | 1013.2 |
| 20260905182039 | 85 | 68 | 4.3 | 9.6 | 0.00 | 0.00 | 0.00 | 50 | 1013.6 |
| 20260905181019 | 84 | 113 | 4.3 | 7.8 | 0.00 | 0.00 | 0.00 | 48 | 1013.9 |
| 20260905180059 | 84 | 113 | 4.3 | 8.7 | 0.00 | 0.00 | 0.00 | 49 | 1014.1 |
| 20260905175019 | 83 | 113 | 3.5 | 7.8 | 0.00 | 0.00 | 0.00 | 45 | 1014.1 |
| 20260905174019 | 81 | 113 | 4.3 | 7.0 | 0.00 | 0.00 | 0.00 | 26 | 1014.1 |
| 20260905173019 | 80 | 113 | 6.1 | 8.7 | 0.00 | 0.00 | 0.00 | 27 | 1014.5 |
| 20260905172019 | 80 | 135 | 4.3 | 8.7 | 0.00 | 0.00 | 0.00 | 18 | 1014.6 |
| 20260905171019 | 80 | 45 | 3.5 | 8.7 | 0.00 | 0.00 | 0.00 | 21 | 1014.8 |
| 20260905170059 | 78 | 68 | 4.3 | 10.4 | 0.00 | 0.00 | 0.00 | 1 | 1014.5 |
| 20260905165019 | 78 | 113 | 3.5 | 7.8 | 0.00 | 0.00 | 0.00 | 1 | 1014.5 |
| 20260905164019 | 78 | 68 | 4.3 | 9.6 | 0.00 | 0.00 | 0.00 | 8 | 1014.3 |
| 20260905163019 | 79 | 68 | 2.6 | 7.0 | 0.00 | 0.00 | 0.00 | 1 | 1014.1 |
| 20260905162019 | 79 | 338 | 5.2 | 11.3 | 0.00 | 0.00 | 0.00 | 1 | 1013.8 |
| 20260905161019 | 82 | 338 | 9.6 | 17.4 | 0.00 | 0.00 | 0.00 | 1 | 1014.3 |
| 20260905160019 | 85 | 293 | 5.2 | 11.3 | 0.00 | 0.00 | 0.00 | 1 | 1014.6 |
| 20260905155019 | 87 | 315 | 7.0 | 13.9 | 0.00 | 0.00 | 0.00 | 7 | 1014.6 |
| 20260905154019 | 87 | 293 | 1.7 | 5.2 | 0.00 | 0.00 | 0.00 | 1 | 1014.0 |
| 20260905153021 | 86 | 203 | 1.7 | 4.3 | 0.00 | 0.00 | 0.00 | 1 | 1014.1 |
| 20260905152019 | 85 | 180 | 0.9 | 3.5 | 0.00 | 0.00 | 0.00 | 1 | 1013.9 |
| 20260905151019 | 84 | 203 | 1.7 | 3.5 | 0.00 | 0.00 | 0.00 | 1 | 1013.6 |
| 20260905150021 | 83 | 203 | 1.7 | 3.5 | 0.00 | 0.00 | 0.00 | 1 | 1013.8 |
| 20260905145021 | 83 | 180 | 1.7 | 2.6 | 0.00 | 0.00 | 0.00 | 1 | 1013.8 |
| 20260905144019 | 82 | 180 | 0.9 | 2.6 | 0.00 | 0.00 | 0.00 | 1 | 1014.0 |
| 20260905143019 | 81 | 180 | 1.7 | 3.5 | 0.00 | 0.00 | 0.00 | 1 | 1014.0 |
| 20260905142021 | 81 | 180 | 1.7 | 3.5 | 0.00 | 0.00 | 0.00 | 1 | 1014.1 |
| 20260905141021 | 81 | 180 | 0.9 | 3.5 | 0.00 | 0.00 | 0.00 | 1 | 1014.2 |
| 20260905140020 | 80 | 158 | 0.9 | 1.7 | 0.00 | 0.00 | 0.00 | 1 | 1014.1 |
| 20260905135059 | 79 | 158 | 0.9 | 3.5 | 0.00 | 0.00 | 0.00 | 1 | 1014.1 |
| 20260905134041 | 77 | 158 | 0.9 | 1.7 | 0.00 | 0.00 | 0.00 | 1 | 1014.2 |
| 20260905133020 | 77 | 158 | 0.9 | 3.5 | 0.00 | 0.00 | 0.00 | 1 | 1014.1 |
| 20260905132020 | 76 | 158 | 1.7 | 4.3 | 0.00 | 0.00 | 0.00 | 1 | 1014.2 |
| 20260905131019 | 77 | 0 | 0.9 | 2.6 | 0.00 | 0.00 | 0.00 | 1 | 1014.4 |
| 20260905130019 | 76 | 338 | 0.9 | 2.6 | 0.00 | 0.00 | 0.00 | 1 | 1014.5 |
| 20260905125021 | 76 | 338 | 0.9 | 1.7 | 0.00 | 0.00 | 0.00 | 1 | 1014.8 |
| 20260905124040 | 74 | 338 | 0.9 | 2.6 | 0.00 | 0.00 | 0.00 | 1 | 1014.7 |
| 20260905123021 | 73 | 0.0 | 0.0 | 0.00 | 0.00 | 0.00 | 1 | 1014.7 | |
| 20260905122019 | 72 | 0.0 | 0.0 | 0.00 | 0.00 | 0.00 | 1 | 1014.6 | |
| 20260905121021 | 71 | 0.0 | 0.0 | 0.00 | 0.00 | 0.00 | 1 | 1014.5 | |
| 20260905120041 | 70 | 0.0 | 0.0 | 0.00 | 0.00 | 0.00 | 1 | 1014.3 | |
| 20260905115041 | 69 | 0.0 | 0.0 | 0.00 | 0.00 | 0.00 | 1 | 1014.1 | |
| 20260905114022 | 69 | 0.0 | 0.0 | 0.00 | 0.00 | 0.00 | 1 | 1014.0 | |
| 20260905113020 | 69 | 0.0 | 0.0 | 0.00 | 0.00 | 0.00 | 1 | 1013.8 | |
| 20260905112021 | 69 | 0.0 | 0.0 | 0.00 | 0.00 | 0.00 | 1 | 1013.9 | |
| 20260905111041 | 69 | 0.0 | 0.0 | 0.00 | 0.00 | 0.00 | 1 | 1013.9 | |
| 20260905110021 | 69 | 0.0 | 0.0 | 0.00 | 0.00 | 0.00 | 1 | 1013.7 | |
| 20260905105020 | 69 | 0.0 | 0.9 | 0.00 | 0.00 | 0.00 | 1 | 1013.7 | |
| 20260905104040 | 69 | 0.0 | 0.9 | 0.00 | 0.00 | 0.00 | 1 | 1013.6 | |
| 20260905103020 | 69 | 0.0 | 0.0 | 0.00 | 0.00 | 0.00 | 1 | 1013.6 | |
| 20260905102021 | 69 | 0.0 | 0.0 | 0.00 | 0.00 | 0.00 | 1 | 1013.5 | |
| 20260905101140 | 69 | 0.0 | 0.0 | 0.00 | 0.00 | 0.00 | 1 | 1013.5 | |
| 20260905100020 | 69 | 338 | 0.9 | 1.7 | 0.00 | 0.00 | 0.00 | 1 | 1013.6 |
| 20260905095020 | 70 | 338 | 0.9 | 1.7 | 0.00 | 0.00 | 0.00 | 1 | 1013.7 |
| 20260905094020 | 69 | 338 | 0.9 | 1.7 | 0.00 | 0.00 | 0.00 | 1 | 1013.4 |
| 20260905093101 | 69 | 0.0 | 0.0 | 0.00 | 0.00 | 0.00 | 1 | 1013.3 | |
| 20260905092100 | 69 | 0.0 | 1.7 | 0.00 | 0.00 | 0.00 | 1 | 1013.3 | |
| 20260905091020 | 69 | 0.0 | 0.0 | 0.00 | 0.00 | 0.00 | 1 | 1013.3 | |
| 20260905090020 | 69 | 0.0 | 0.0 | 0.00 | 0.00 | 0.00 | 1 | 1013.4 | |
| 20260905085021 | 69 | 0.0 | 0.0 | 0.00 | 0.00 | 0.00 | 1 | 1013.4 | |
| 20260905084020 | 70 | 0.0 | 0.9 | 0.00 | 0.00 | 0.00 | 1 | 1013.4 |